Location: Bühlhof
(48.7849°N, 8.6361°E)
Time: 23:38:59
(UTC+00:00)

Cosmos 909 Rocket - Pass Details

Date: 19 January 2026
Orbit: 992 x 2087 km, 65.9° (Epoch: 7 February)

Event Time Altitude Azimuth Distance (km) Brightness Sun altitude
Rises 18:51:08 0° 219° (SW) 4,353 7.9 -27.3°
Reaches altitude 10° 18:54:11 10° 221° (SW) 3,239 7.2 -27.8°
Maximum altitude 19:01:41 79° 308° (NW) 1,117 4.2 -29.0°
Enters shadow 19:03:15 55° 21° (NNE) 1,261 4.4 -29.3°
